Other Public Products
Issued by NWS Grand Forks, ND

Home | Current Version | Previous Version | Graphics & Text | Print | Product List | Glossary On
Versions: 1 2 3 4 5 6 7 8 9 10 11 12 13 14 15 16 17 18 19 20 21 22 23 24 25 26 27 28 29 30 31 32 33 34 35 36 37 38 39 40 41 42 43 44 45 46 47 48 49 50
958
FPUS83 KFGF 250710
OPUFGF
PRAIRIE TO PINES WEATHER ROUNDUP
NATIONAL WEATHER SERVICE EASTERN NORTH DAKOTA/GRAND FORKS ND
200 AM CDT TUE APR 25 2017

 **SATELLITE DATA USED TO AUGMENT SKY COVER AT AUTOMATED STATIONS**
 *****  WEATHER ACROSS EASTERN NORTH DAKOTA  *****

CITY           SKY/WX    TMP DP  RH WIND       PRES   REMARKS
GRAND FORKS    CLOUDY    33  31  92 N18       29.71R WCI  22
GRAND FORKS AF CLOUDY    31  29  94 N16       29.73R WCI  20
GRAND CITY NWS NOT AVBL
BUXTON         NOT AVBL
DEVILS LAKE    CLOUDY    29  27  92 N18       29.77R WCI  16
FARGO          CLOUDY    35  33  92 N21G29    29.64S WCI  24
WAHPETON ARPT  CLOUDY    34  32  93 NW20G29   29.61S WCI  22
$$

 *****  WEATHER ACROSS CENTRAL AND WESTERN NORTH DAKOTA  *****

CITY           SKY/WX    TMP DP  RH WIND       PRES   REMARKS
JAMESTOWN      CLOUDY    32  30  92 N17       29.70R WCI  21
BISMARCK       CLOUDY    34  29  82 N16       29.76S WCI  24
MINOT          CLOUDY    32  27  81 N14       29.81S WCI  22
MINOT AFB      CLOUDY    31  26  83 NE15      29.81S WCI  20
GARRISON         N/A     30  26  85 NE12      29.78R WCI  20
WILLISTON      CLOUDY    31  25  78 NE10      29.84S WCI  22
DICKINSON      CLOUDY    28  26  92 NE14      29.73S WCI  17
HETTINGER      CLOUDY    30  28  92 NE12      29.73R FOG     WCI  20
$$

 *****  OTHER OBSERVATIONS NORTHEAST NORTH DAKOTA  *****

CITY           SKY/WX    TMP DP  RH WIND       PRES   REMARKS
WALHALLA       NOT AVBL
LANGDON        CLOUDY    28  28 100 N18G24    29.77R WCI  16
CAVALIER       CLOUDY    30  27  86 N16       29.78R WCI  19
GRAFTON        CLOUDY    30  30 100 N18       29.76R WCI  18
CANDO          NOT AVBL
FORT TOTTEN      N/A     29  29 100 NE8       29.95S WCI  21
ROLLA          CLOUDY    27  27 100 NE22G29   29.80S WCI  12
RUGBY          NOT AVBL
 ***** THE ABOVE OBSERVATIONS ARE NON NWS ARE NOT QUALITY
        CONTROLLED AND MAY MIS-REPORT RAIN FOR SNOW...
$$

 *****  OTHER OBSERVATIONS SOUTHEAST NORTH DAKOTA *****

CITY           SKY/WX    TMP DP  RH WIND       PRES   REMARKS
COOPERSTOWN    CLOUDY    32  30  93 N22       29.71S WCI  19
VALLEY CITY    MIX PCPN  30  30 100 N17       29.70R WCI  18
OAKES          NOT AVBL
GWINNER        CLOUDY    34  34 100 MISG      29.65S
SHEYENNE NWR     N/A     33  32  96 N13       29.95S WCI  24
BUFFALO        NOT AVBL
WYNDMERE         N/A     36  36 100 N17         N/A
 ***** THE ABOVE OBSERVATIONS ARE NON NWS ARE NOT QUALITY
       CONTROLLED AND MAY MIS-REPORT RAIN FOR SNOW...
$$

  *****  WEATHER ACROSS NORTHERN MINNESOTA  *****

CITY           SKY/WX    TMP DP  RH WIND       PRES   REMARKS
FLAG ISLAND    FLURRIES  30  28  93 NE14      29.70S WCI  20
WARROAD        CLOUDY    32  28  86 N14G20    29.70R WCI  22
ROSEAU         CLOUDY    30  27  86 N14       29.70R WCI  20
HALLOCK        CLOUDY    30  28  93 N14       29.74S WCI  20
THF RVR FALLS  CLOUDY    32  31  96 N14       29.66R WCI  22
HALSTAD          N/A     33  32  95 N22         N/A  WCI  21
FOSSTON        CLOUDY    34  34 100 N14       29.62R WCI  24
BAUDETTE       CLOUDY    33  31  92 NE12      29.66R WCI  24
WASKISH        DRIZZLE   37  36  93 NE7       29.62F
CROOKSTON      CLOUDY    32  32 100 N17       29.68R WCI  21
$$
  *****  WEATHER ACROSS CENTRAL AND WEST MINNESOTA  *****

CITY           SKY/WX    TMP DP  RH WIND       PRES   REMARKS
BEMIDJI        CLOUDY    39  38  99 NE6       29.58F
PARK RAPIDS    CLOUDY    44  40  85 N7        29.54F
WADENA         CLOUDY    45  43  93 N7        29.53S
DETROIT LAKES  FOG       37  37 100 N15       29.58S VSB 1
MOORHEAD       CLOUDY    34  34 100 N20G28    29.64S WCI  22
FERGUS FALLS   FOG       37  37 100 N18G25    29.58S VSB 1
ELBOW LAKE     CLOUDY    38  38 100 W17       29.57S FOG
MORRIS MN      CLOUDY    37  37 100 NW22      29.55S FOG
STAPLES        CLOUDY    45  43  93 N5        29.53S
WHEATON        CLOUDY    36  34  93 NW18G25   29.62S FOG
$$
  *****  WEATHER ELSEWHERE ACROSS MINNESOTA  *****

CITY           SKY/WX    TMP DP  RH WIND       PRES   REMARKS
DULUTH         LGT RAIN  39  34  82 E12       29.63S
INTRNTL FALLS  LGT RAIN  36  34  92 N6        29.64F
ELY            LGT RAIN  36  36 100 CALM      29.63F
CLOQUET        DRIZZLE   37  34  87 E7        29.61F
BRAINERD       LGT RAIN  44  40  85 NE6       29.54S
HIBBING        CLOUDY    36  35  96 SE5       29.60S
ALEXANDRIA     CLOUDY    44  44 100 NW12      29.54S FOG
SAINT CLOUD    LGT RAIN  55  46  71 E3        29.50F
MINNEAPOLIS    CLOUDY    61  37  41 SE10      29.52F
$$

  *****  WEATHER ACROSS SOUTH DAKOTA  *****

CITY           SKY/WX    TMP DP  RH WIND       PRES   REMARKS
SIOUX FALLS    FAIR      42  38  85 N9        29.57R
BROOKINGS      CLOUDY    40  36  86 N13       29.57S
WATERTOWN      CLOUDY    37  35  92 N12       29.57F
HURON          CLOUDY    38  35  89 N15       29.62S
SISSETON         N/A     36  35  96 N24       29.60S
ABERDEEN       CLOUDY    35  30  82 N14G25    29.66S
MITCHELL       CLOUDY    42  37  82 N12       29.64R
PIERRE         CLOUDY    37  32  82 N17       29.66S
MOBRIDGE       CLOUDY    36  29  75 N13       29.68S
RAPID CITY     LGT RAIN  37  34  89 NE12      29.65S
$$

  *****  SOME WEATHER IN NEARBY STATES *****

CITY           SKY/WX    TMP DP  RH WIND       PRES   REMARKS
GLASGOW MT     CLOUDY    30  24  78 E15       29.83R WCI  19
GREAT FALLS MT CLOUDY    41  37  86 N6        29.70R
CHEYENNE WY    CLOUDY    37  34  89 SW7       29.58F
SCOTTSBLUFF NE RAIN      45  43  93 W5        29.61R FOG
OMAHA NE       FAIR      54  44  69 N12       29.51F
DES MOINES IA  MOCLDY    62  37  39 SE8       29.55F
DAVENPORT IA   FAIR      57  30  35 SE10      29.67S
CHICAGO IL     FAIR      56  39  53 SE10      29.73F
EAU CLAIRE WI  CLOUDY    59  33  37 SE8       29.60F
LA CROSSE WI   FAIR      63  31  30 SE10      29.60F
$$

  *****  SOME NATIONAL WEATHER *****

CITY           SKY/WX    TMP DP  RH WIND       PRES   REMARKS
LA GUARDIA NY  CLOUDY    50  46  86 NE16      30.08F
RALEIGH NC     LGT RAIN  59  58  96 N12       29.62F
ATLANTA GA     CLOUDY    59  57  93 W7        29.74F
NEW ORLEANS LA FAIR      61  56  83 W3        29.80F
OKLAHOMA CITY  MOCLDY    62  50  64 S20       29.49F
ALBUQUERQUE NM MOCLDY    65  20  17 SW10      29.73S
SALT LAKE CITY FAIR      43  41  93 SE6       29.75F
LOS ANGELES CA MOCLDY    60  54  80 CALM      29.87R
BOISE ID       CLOUDY    45  41  86 N5        29.79R
SEATTLE WA     MOCLDY    49  45  86 SW12      29.93R
$$

*** WEATHER ACROSS MANITOBA...SASKATCHEWAN AND ONTARIO ***
                ***ONTARIO***

CITY           SKY/WX    TMP DP  RH WIND       PRES   REMARKS
GERALDTON      FLURRIES  30  21  69 E17G24    29.88F WCI  18
THUNDER BAY    LGT RAIN  37  34  87 E22       29.76F
SIOUX LOOKOUT  FRZ DRZL  27  25  93 NE8       29.75F WCI  18
TORONTO        PTCLDY    45  32  61 E9        30.02F
BIG TROUT LK   CLEAR     16   5  62 E8        30.19F WCI   5
PICKLE LAKE    NOT AVBL
DRYDEN         LGT SNOW  28  28 100 NE15G22   29.71  WCI  17
KENORA         LGT SNOW  28  25  86 NE15G23   29.72F DRFTSNOWWCI  17
$$
                *** MANITOBA***

CITY           SKY/WX    TMP DP  RH WIND       PRES   REMARKS
BRANDON        CLOUDY    28  25  86 NE9       29.88S WCI  20
DAUPHIN        CLEAR     27  19  74 N12       29.97R WCI  16
ISLAND LAKE    CLEAR     16   1  53 NE8G18    30.16S WCI   5
PILOT MOUND      N/A     28  25  86 N13G23      N/A  WCI  18
THE PAS        PTCLDY    23   7  50 E6        30.14R WCI  16
THOMPSON       PTCLDY     9  -4  56 E6        30.27R WCI  -1
WINNIPEG       CLOUDY    30  25  80 NE21G28   29.83S WCI  17
LYNN LAKE      CLEAR      7  -2  66 E5        30.21S WCI  -2
CHURCHILL      CLOUDY     1  -2  85 SW2       30.44S
GILLAM         CLEAR     -4 -11  71 E6        30.36S WCI -16
$$
                ***SASKATCHEWAN***

CITY           SKY/WX    TMP DP  RH WIND       PRES   REMARKS
ESTEVAN        FLURRIES  27  23  86 NE14      29.89R WCI  15
KINDERSLEY     CLOUDY    28  25  86 SE13      29.89R WCI  18
LLOYDMINSTER   FLURRIES  28  28 100 SE13      29.92S WCI  18
PRINCE ALBERT  MOCLDY    27  16  63 E8        30.04R WCI  18
REGINA         CLOUDY    27  21  80 E13       29.94R WCI  16
YORKTON        CLEAR     21  18  86 N10       29.98R WC



USA.gov is the U.S. government's official web portal to all federal, state and local government web resources and services.